Terminal Aerodrome Forecast
Issued by NWS

Home | Current Version | Previous Version | Text Only | Print | Product List | Glossary On
Versions: 1 2 3 4 5 6 7 8 9 10 11 12 13 14 15 16 17 18 19 20
000
FTUS43 KICT 180850 AAB
TAFCNU
TAF AMD
KCNU 180850Z 1809/1906 07007KT 2SM -FZRASN OVC004
     FM181100 03004KT 1SM -SN OVC003
     FM181500 VRB05KT 1/2SM FG SCT004 OVC007
     FM181800 07005KT 4SM BR BKN007 OVC015=

USA.gov is the U.S. government's official web portal to all federal, state and local government web resources and services.